Skip Page Navigation
NASA JPL Caltech
NASA Logo - Jet Propulsion Laboratory + View the NASA Portal
+ Near-Earth Object (NEO) Program
Search JPL
JPL Home Earth Solar System Stars & Galaxies Technology
JPL Solar System Dynamics
BODIES ORBITS EPHEMERIDES TOOLS PHYSICAL DATA DISCOVERY FAQ SITE MAP
JPL Small-Body Database Browser
Search: [ help ]  
712 Boliviana (1911 LO)
Classification: Main-belt Asteroid          SPK-ID: 2000712
Ephemeris | Orbit Diagram | Orbital Elements | Physical Parameters | Discovery Circumstances ]

[ hide orbit diagram ]
Orbit Diagram
Note: Make sure you have Java enabled on your browser to see the applet. This applet is provided as a 3D orbit visualization tool. The applet was implemented using 2-body methods, and hence should not be used for determining accurate long-term trajectories (over several years or decades) or planetary encounter circumstances. For accurate long-term ephemerides, please instead use our Horizons system.
Orbit Viewer

Additional Notes: the orbits shown in the applet are color coded. The planets are white lines, and the asteroid/comet is a blue line. The bright white line indicates the portion of the orbit that is above the ecliptic plane, and the darker portion is below the ecliptic plane. Likewise for the asteroid/comet orbit, the light blue indicates the portion above the ecliptic plane, and the dark blue the portion below the ecliptic plane.

Orbit Viewer applet originally written and kindly provided by Osamu Ajiki (AstroArts), and further modified by Ron Baalke (JPL).


Orbital Elements at Epoch 2456400.5 (2013-Apr-18.0) TDB
Reference: JPL 80 (heliocentric ecliptic J2000)
 Element Value Uncertainty (1-sigma)   Units 
e .1861135067434456 6.8545e-08  
a 2.575253368554805 8.6144e-09 AU
q 2.0959639333802 1.7667e-07 AU
i 12.76292660720324 7.3844e-06 deg
node 230.9044822024305 2.546e-05 deg
peri 181.7743235314645 2.9776e-05 deg
M 292.5443446255447 1.488e-05 deg
tp 2456683.342220492789
(2014-Jan-25.84222049)
6.2739e-05 JED
period 1509.483509012992
4.13
7.574e-06
2.074e-08
d
yr
n .2384921715609823 1.1967e-09 deg/d
Q 3.054542803729411 1.0218e-08 AU
  Orbit Determination Parameters
   # obs. used (total)      1177  
   data-arc span      37047 days (101.43 yr)  
   first obs. used      1911-03-25  
   last obs. used      2012-08-28  
   planetary ephem.      DE405  
   SB-pert. ephem.      SB405-CPV-2  
   condition code      0  
   fit RMS      .60346  
   data source      ORB  
   producer      Otto Matic  
   solution date      2013-Mar-29 15:07:36  

Additional Information
 Earth MOID = 1.10628 AU 
 T_jup = 3.369 
[ show covariance matrix ]

Ephemeris | Orbit Diagram | Orbital Elements | Physical Parameters | Discovery Circumstances ]

Physical Parameter Table
Parameter Symbol Value Units Sigma Reference Notes
absolute magnitude H 8.32 mag n/a IRAS-A-FPA-3-RDR-IMPS-V6.0 IRAS observations used: 41
magnitude slope G 0.03   n/a PDS3 (MPC 17259) Fit
diameter diameter 127.57 km 2.2 IRAS-A-FPA-3-RDR-IMPS-V6.0 IRAS observations used: 41
rotation period rot_per 11.732 h n/a Asteroid Lightcurve DataBase (Rev. 2013-May-01) Result based on less than full coverage, so that the period may be wrong by 30 percent or so.
Published Reference List:
[Zappala, V.; Scaltriti, F.; Di Martino, M. (1983) Icarus 56, 325-344.]
[Harris, A.W.; Young, J.W. (1989) Icarus 81, 314-364.]
geometric albedo albedo 0.0510   0.002 IRAS-A-FPA-3-RDR-IMPS-V6.0 IRAS observations used: 41
B-V BV .743 mag .021 EAR-A-5-DDR-UBV-MEAN-VALUES-V1.1 #obs=5; phase (min.=5.64, mean=10.65, max.=19.46) deg.
U-B UB .353 mag .010 EAR-A-5-DDR-UBV-MEAN-VALUES-V1.1 #obs=5; phase (min.=5.64, mean=10.65, max.=19.46) deg.
Tholen spectral type spec_T C   n/a EAR-A-5-DDR-TAXONOMY-V4.0 used 7 color indices
SMASSII spectral type spec_B X   n/a EAR-A-5-DDR-TAXONOMY-V4.0 based on a high-resolution spectrum by Xu et al. (1995) or Bus and Binzel (2002)

712 Boliviana (1911 LO)          Discovered 1911-Mar-19 by Wolf, M. at Heidelberg (024)
Reference: DISCOVERY.DBLast Updated: 2003-08-29

Alternate Designations
 1911 LO = 1966 KD = 1972 XL2 
Ephemeris | Orbit Diagram | Orbital Elements | Physical Parameters | Discovery Circumstances ]
ABOUT SSD CREDITS/AWARDS PRIVACY/COPYRIGHT GLOSSARY LINKS
FirstGov 2013-May-20 17:19 UT
(server date/time)  
NASA Home Page
Site Manager:   Donald K. Yeomans
Webmaster  Alan B. Chamberlin